This demonstration page uses our WeatherBlox Daily Observations layout. Learn more.

Left ArrowRight Arrow

Hourly Observations for August 19, 2020

Temp ( °F °C ) Dew Point ( °F °C ) Humidity (%) Winds ( mph kmh ) Pressure ( in mb ) Visibility ( mi km ) Precip ( " mm )
12:52 am 00:52 Clear 63 17.2 57 13.9 81 81 Calm 30.03 1017 10 16 0.00 0.00
1:52 am 01:52 Clear 59 15 56 13.3 90 90 Calm 30.02 1017 10 16 0.00 0.00
2:52 am 02:52 Clear 59 15 56 13.3 90 90 Calm 30.02 1017 10 16 0.00 0.00
3:52 am 03:52 Clear 58 14.4 56 13.3 93 93 Calm 30.02 1017 10 16 0.00 0.00
4:52 am 04:52 Clear 58 14.4 56 13.3 93 93 Calm 30.02 1017 10 16 0.00 0.00
5:52 am 05:52 Clear 57 13.9 55 12.8 93 93 Calm 30.02 1017 10 16 0.00 0.00
6:52 am 06:52 Mostly Sunny 57 13.9 56 13.3 96 96 N 3 6 30.04 1017 10 16 0.00 0.00
7:52 am 07:52 Mostly Cloudy 62 16.7 59 15 90 90 NE 6 9 30.05 1018 10 16 0.00 0.00
8:52 am 08:52 Mostly Cloudy 68 20 60 15.6 76 76 ENE 6 9 30.05 1018 10 16 0.00 0.00
9:52 am 09:52 Mostly Sunny 73 22.8 62 16.7 69 69 ENE 6 9 30.05 1018 10 16 0.00 0.00
10:52 am 10:52 Sunny 77 25 60 15.6 56 56 E 8 13 30.05 1018 10 16 0.00 0.00
11:52 am 11:52 Mostly Sunny 79 26.1 58 14.4 49 49 E 9 15 30.04 1017 10 16 0.00 0.00
12:52 pm 12:52 Mostly Sunny 82 27.8 59 15 46 46 NNE 9 15 30.03 1017 10 16 0.00 0.00
1:52 pm 13:52 Mostly Sunny 82 27.8 57 13.9 42 42 ENE 10 17 30.01 1016 10 16 0.00 0.00
2:52 pm 14:52 Partly Cloudy 82 27.8 56 13.3 41 41 Calm 30.00 1016 10 16 0.00 0.00
3:52 pm 15:52 Mostly Sunny 83 28.3 57 13.9 41 41 ENE 10 17 29.98 1015 10 16 0.00 0.00
4:52 pm 16:52 Mostly Sunny 83 28.3 55 12.8 38 38 NE 12 19 29.96 1015 10 16 0.00 0.00
5:52 pm 17:52 Sunny 82 27.8 56 13.3 41 41 ENE 12 19 29.96 1015 10 16 0.00 0.00
6:52 pm 18:52 Sunny 80 26.7 54 12.2 41 41 NE 9 15 29.95 1014 10 16 0.00 0.00
7:52 pm 19:52 Sunny 77 25 55 12.8 47 47 ENE 7 11 29.96 1014 10 16 0.00 0.00
8:52 pm 20:52 Clear 73 22.8 56 13.3 55 55 E 7 11 29.96 1015 10 16 0.00 0.00
9:52 pm 21:52 Clear 71 21.7 55 12.8 57 57 E 7 11 29.98 1015 10 16 0.00 0.00
10:52 pm 22:52 Clear 69 20.6 54 12.2 59 59 E 8 13 29.99 1016 10 16 0.00 0.00
11:52 pm 23:52 Clear 68 20 53 11.7 59 59 E 9 15 29.99 1016 10 16 0.00 0.00

Powered by AerisWeather